Other Public Products
Issued by NWS Grand Forks, ND

Home | Current Version | Previous Version | Text Only | Print | Product List | Glossary Off
Versions: 1 2 3 4 5 6 7 8 9 10 11 12 13 14 15 16 17 18 19 20 21 22 23 24 25 26 27 28 29 30 31 32 33 34 35 36 37 38 39 40 41 42 43 44 45 46 47 48 49 50

000
FPUS83 KFGF 180031
OPUFGF
PRAIRIE TO PINES WEATHER ROUNDUP
NATIONAL WEATHER SERVICE EASTERN NORTH DAKOTA/GRAND FORKS ND
600 PM CST WED DEC 17 2014

 **SATELLITE DATA USED TO AUGMENT SKY COVER AT AUTOMATED STATIONS**
 *****  WEATHER ACROSS EASTERN NORTH DAKOTA  *****

CITY           SKY/WX    TMP DP  RH WIND       PRES   REMARKS
GRAND FORKS    CLEAR     13   9  84 E3        30.32S
6HR MIN TEMP:  12; 6HR MAX TEMP:  18;

GRAND FORKS AF PTCLDY     8   8  98 SW1       30.32S
GRAND CITY NWS NOT AVBL
BUXTON           N/A     14  10  85 CALM        N/A
DEVILS LAKE    PTCLDY     9   0  66 SE5       30.23F WCI   0
6HR MIN TEMP:   9; 6HR MAX TEMP:  16;

FARGO          CLEAR     14   9  80 N5        30.31F WCI   6
6HR MIN TEMP:  13; 6HR MAX TEMP:  20;

WAHPETON ARPT  FAIR      12   9  85 CALM      30.31S
$$

 *****  WEATHER ACROSS CENTRAL AND WESTERN NORTH DAKOTA  *****

CITY           SKY/WX    TMP DP  RH WIND       PRES   REMARKS
JAMESTOWN      PTCLDY    11   7  84 E6        30.24F WCI   1
6HR MIN TEMP:  11; 6HR MAX TEMP:  18;

BISMARCK       PTCLDY    11   9  92 SE7       30.20F WCI   0
6HR MIN TEMP:  11; 6HR MAX TEMP:  20;

MINOT          PTCLDY    11   7  84 SE6       30.18S WCI   1
6HR MIN TEMP:  11; 6HR MAX TEMP:  17;

MINOT AFB      PTCLDY     5   5 100 SE8       30.18F WCI  -8
6HR MIN TEMP:   8; 6HR MAX TEMP:  17;

GARRISON         N/A     12   9  87 SE9       30.16S WCI   0
6HR MIN TEMP:  12; 6HR MAX TEMP:  17;

WILLISTON      CLOUDY    20  13  74 SE10      30.10S WCI   9
6HR MIN TEMP:  19; 6HR MAX TEMP:  21;

DICKINSON      CLOUDY    18  13  80 SE14      30.06R WCI   4
6HR MIN TEMP:  17; 6HR MAX TEMP:  19; 6HR PCP: TRACE;

HETTINGER      CLOUDY    17  14  88 SE10      30.08R WCI   5
6HR MIN TEMP:  15; 6HR MAX TEMP:  17; 6HR PCP: TRACE;

$$

 *****  OTHER OBSERVATIONS NORTHEAST NORTH DAKOTA  *****

CITY           SKY/WX    TMP DP  RH WIND       PRES   REMARKS
WALHALLA         N/A      9   9 100 CALM      30.31F
LANGDON        FAIR       7   1  78 SE7       30.24S WCI  -5
CAVALIER       FAIR       9   7  92 CALM      30.32S
GRAFTON        NOT AVBL
CANDO          FAIR       7   5  92 SE6       30.25S WCI  -3
FORT TOTTEN      N/A     10   6  83 SE2       29.95
ROLLA          FAIR       7   5  92 S7        30.22S WCI  -5
RUGBY          FAIR       9   7  92 SE7       30.23S WCI  -3
 ***** THE ABOVE OBSERVATIONS ARE NON NWS ARE NOT QUALITY
        CONTROLLED AND MAY MIS-REPORT RAIN FOR SNOW...
$$

 *****  OTHER OBSERVATIONS SOUTHEAST NORTH DAKOTA *****

CITY           SKY/WX    TMP DP  RH WIND       PRES   REMARKS
COOPERSTOWN    NOT AVBL
VALLEY CITY    FAIR      14  14 100 E5        30.26F WCI   6
OAKES            N/A      9   9 100 E8        30.26F WCI  -4
GWINNER        CLEAR     14  12  92 MISG      30.28F
BUFFALO        NOT AVBL
WYNDMERE         N/A     14  10  85 N2          N/A
 ***** THE ABOVE OBSERVATIONS ARE NON NWS ARE NOT QUALITY
       CONTROLLED AND MAY MIS-REPORT RAIN FOR SNOW...
$$

  *****  WEATHER ACROSS NORTHERN MINNESOTA  *****

CITY           SKY/WX    TMP DP  RH WIND       PRES   REMARKS
FLAG ISLAND    PTCLDY    14   7  73 NE3       30.31F
WARROAD        PTCLDY     9   5  85 E3        30.31F
ROSEAU         PTCLDY    12   7  79 CALM      30.31S
HALLOCK        PTCLDY    12   9  85 E3        30.31F
THF RVR FALLS  PTCLDY    12   9  85 CALM      30.30F
6HR MIN TEMP:  12; 6HR MAX TEMP:  18;

HALSTAD          N/A     12   7  79 W2          N/A
FOSSTON        CLEAR      7   5  92 CALM      30.29S
BAUDETTE       PTCLDY    11   7  84 N5        30.29F WCI   3
6HR MIN TEMP:  11; 6HR MAX TEMP:  20;

WASKISH        PTCLDY     9   7  92 CALM      30.29S
CROOKSTON      PTCLDY    14  10  85 E5        30.32F WCI   6
$$
  *****  WEATHER ACROSS CENTRAL AND WEST MINNESOTA  *****

CITY           SKY/WX    TMP DP  RH WIND       PRES   REMARKS
BEMIDJI        FAIR      13  10  84 CALM      30.26S
PARK RAPIDS    PTCLDY    17  11  77 CALM      30.25S
6HR MIN TEMP:  17; 6HR MAX TEMP:  23;

WADENA         PTCLDY    10   9  92 CALM      30.26F
DETROIT LAKES  PTCLDY    12  10  92 CALM      30.27F
MOORHEAD       CLEAR     12  12 100 CALM      30.32S
FERGUS FALLS   CLEAR     12   7  79 CALM      30.33R
ELBOW LAKE     FAIR      11   8  87 W3        30.28S
6HR MIN TEMP:   9; 6HR MAX TEMP:  15;

MORRIS MN      PTCLDY    10   9  92 NW6       30.29S WCI   1
STAPLES        PTCLDY    12  10  92 CALM      30.27S
WHEATON        PTCLDY     9   7  92 CALM      30.32F
$$
  *****  WEATHER ELSEWHERE ACROSS MINNESOTA  *****

CITY           SKY/WX    TMP DP  RH WIND       PRES   REMARKS
DULUTH         CLOUDY    19  13  77 NW3       30.26S
6HR MIN TEMP:  16; 6HR MAX TEMP:  20;

INTRNTL FALLS  PTCLDY     6   2  83 NE3       30.32S
6HR MIN TEMP:   5; 6HR MAX TEMP:  19;

ELY            PTCLDY    10   9  92 CALM      30.29S
CLOQUET        MOCLDY    18  12  79 CALM      30.27F
BRAINERD       CLEAR     11   8  88 CALM      30.27F
6HR MIN TEMP:  11; 6HR MAX TEMP:  19; 6HR PCP: TRACE;

HIBBING        PTCLDY    10   6  84 CALM      30.28S
6HR MIN TEMP:  10; 6HR MAX TEMP:  22;

ALEXANDRIA     FAIR      15   9  76 NE3       30.27S
6HR MIN TEMP:  14; 6HR MAX TEMP:  18;

SAINT CLOUD    PTCLDY    15   8  73 CALM      30.30S
6HR MIN TEMP:  15; 6HR MAX TEMP:  20;

MINNEAPOLIS    PTCLDY    17   9  70 NE6       30.31F WCI   9
6HR MIN TEMP:  17; 6HR MAX TEMP:  20;

$$

  *****  WEATHER ACROSS SOUTH DAKOTA  *****

CITY           SKY/WX    TMP DP  RH WIND       PRES   REMARKS
SIOUX FALLS    PTCLDY    14   9  80 NE5       30.28R WCI   6
6HR MIN TEMP:  12; 6HR MAX TEMP:  20;

BROOKINGS      NOT AVBL
WATERTOWN      PTCLDY    13   8  81 E7        30.23F WCI   3
6HR MIN TEMP:  13; 6HR MAX TEMP:  22;

HURON          MOCLDY    11   8  88 CALM      30.27R
6HR MIN TEMP:   9; 6HR MAX TEMP:  15;

SISSETON         N/A      8   6  92 W3        30.28F
ABERDEEN       PTCLDY    11   6  81 SE5       30.28R WCI   3
6HR MIN TEMP:  11; 6HR MAX TEMP:  20;

MITCHELL       PTCLDY    14  11  87 S5        30.28R WCI   6
PIERRE         CLOUDY    18  15  88 SE14      30.18R WCI   4
6HR MIN TEMP:  17; 6HR MAX TEMP:  18;

MOBRIDGE       CLOUDY    20  12  71 SE9       30.17R WCI   9
RAPID CITY     CLOUDY    23  19  85 NE9       30.01R WCI  13
6HR MIN TEMP:  21; 6HR MAX TEMP:  23;

$$

  *****  SOME WEATHER IN NEARBY STATES *****

CITY           SKY/WX    TMP DP  RH WIND       PRES   REMARKS
GLASGOW MT     CLOUDY    23  18  81 E10       29.99S WCI  12
6HR MIN TEMP:  19; 6HR MAX TEMP:  24;

GREAT FALLS MT CLEAR     32  27  81 SW9       29.85R WCI  24
6HR MIN TEMP:  32; 6HR MAX TEMP:  39;

CHEYENNE WY    CLOUDY    36  19  50 W6        29.91R
6HR MIN TEMP:  36; 6HR MAX TEMP:  47;

SCOTTSBLUFF NE PTCLDY    16  14  92 E9        29.97R WCI   4
6HR MIN TEMP:  16; 6HR MAX TEMP:  23;

OMAHA NE       CLOUDY    28  17  63 CALM      30.28S
6HR MIN TEMP:  23; 6HR MAX TEMP:  28;

DES MOINES IA  PTCLDY    25  15  66 N5        30.29F WCI  19
6HR MIN TEMP:  24; 6HR MAX TEMP:  30;

DAVENPORT IA   CLEAR     22  14  71 NW6       30.30R WCI  14
6HR MIN TEMP:  21; 6HR MAX TEMP:  27;

CHICAGO IL     CLOUDY    25  16  68 W7        30.25R WCI  17
6HR MIN TEMP:  25; 6HR MAX TEMP:  26;

EAU CLAIRE WI  PTCLDY    16   8  71 W3        30.29S
6HR MIN TEMP:  16; 6HR MAX TEMP:  19;

LA CROSSE WI   CLOUDY    21  12  68 N9        30.31R WCI  11
6HR MIN TEMP:  21; 6HR MAX TEMP:  25;

$$

  *****  SOME NATIONAL WEATHER *****

CITY           SKY/WX    TMP DP  RH WIND       PRES   REMARKS
LA GUARDIA NY  MOCLDY    47  35  63 NW16      29.88R


USA.gov is the U.S. government's official web portal to all federal, state and local government web resources and services.